Fort Myers Airport, FL

11:18 AM EDT on July 26, 2017 (GMT -0400)
Southwest Florida International

Weather History for KRSW - January, 2014

Change the Weather History Date:

Tuesday, January 14, 2014

  Actual Average Record
Temperature  
Mean Temperature 72 °F -  
Max Temperature 78 °F 74 °F 86 °F (1947)
Min Temperature 66 °F 52 °F 31 °F (1981)
Cooling Degree Days 7    
Growing Degree Days 22 (Base 50)    
Moisture  
Dew Point 65 °F    
Average Humidity 82    
Maximum Humidity 96    
Minimum Humidity 62    
Precipitation  
Precipitation 0.00 in - - ()
Sea Level Pressure  
Sea Level Pressure 29.98 in    
Wind  
Wind Speed 8 mph (SW)    
Max Wind Speed 24 mph    
Max Gust Speed 28 mph    
Visibility 10 miles    
Events Rain    
Averages and records for this station are not official NWS values.
T = Trace of Precipitation, MM = Missing Value Source: NWS Daily Summary

Daily Weather History Graph

Daily Weather History Graph

Search for Another Location

Airport or City:

Trip Planner

Search our weather history database for the weather conditions in past years. The results will help you decide how hot, cold, wet, or windy it might be!

Date:

Astronomy

Jan. 14, 2014 Rise Set
Actual Time 7:16 AM EST 5:55 PM EST
Civil Twilight 6:51 AM EST 6:20 PM EST
Nautical Twilight 6:23 AM EST 6:49 PM EST
Astronomical Twilight 5:55 AM EST 7:17 PM EST
Moon 4:56 PM EST (1/14) 5:52 AM EST (1/14)
Length of Visible Light 11h 28m
Length of Day
10h 38m
Waxing Gibbous, 98% of the Moon is Illuminated
Jan 14
Waxing Gibbous
Jan 15
Full
Jan 24
Last Quarter
Jan 30
New
Feb 6
First Quarter

Hourly Weather History & Observations

Time (EST) Temp. Dew Point Humidity Pressure Visibility Wind Dir Wind Speed Gust Speed Precip Events Conditions
12:53 AM 70.0 °F 66.9 °F 90% 30.00 in 10.0 mi SSE 9.2 mph - N/A   Clear
1:53 AM 69.1 °F 66.9 °F 93% 29.99 in 9.0 mi SSE 8.1 mph - N/A   Clear
2:53 AM 69.1 °F 66.9 °F 93% 29.96 in 10.0 mi South 8.1 mph - N/A   Scattered Clouds
3:53 AM 69.1 °F 66.9 °F 93% 29.96 in 10.0 mi South 8.1 mph - N/A   Scattered Clouds
4:53 AM 69.1 °F 66.9 °F 93% 29.96 in 10.0 mi South 5.8 mph - N/A   Partly Cloudy
5:53 AM 68.0 °F 66.9 °F 96% 29.96 in 10.0 mi South 4.6 mph - N/A   Scattered Clouds
6:53 AM 68.0 °F 66.0 °F 93% 29.97 in 10.0 mi SSW 5.8 mph - N/A   Clear
7:53 AM 68.0 °F 66.9 °F 96% 30.00 in 4.0 mi South 4.6 mph - N/A   Clear
8:53 AM 73.0 °F 69.1 °F 87% 30.01 in 10.0 mi SSW 6.9 mph - N/A   Partly Cloudy
9:53 AM 75.0 °F 70.0 °F 84% 30.04 in 10.0 mi SW 12.7 mph - N/A   Clear
10:53 AM 78.1 °F 69.1 °F 74% 30.02 in 10.0 mi SW 12.7 mph - N/A   Clear
11:53 AM 78.1 °F 69.1 °F 74% 30.00 in 10.0 mi SW 24.2 mph 27.6 mph N/A   Scattered Clouds
12:53 PM 77.0 °F 63.0 °F 62% 29.96 in 10.0 mi WSW 12.7 mph - N/A   Partly Cloudy
1:53 PM 75.0 °F 63.0 °F 66% 29.95 in 10.0 mi WSW 9.2 mph - N/A   Mostly Cloudy
2:53 PM 75.0 °F 64.0 °F 69% 29.94 in 10.0 mi WSW 8.1 mph - N/A   Scattered Clouds
3:53 PM 73.9 °F 64.0 °F 71% 29.94 in 10.0 mi WNW 3.5 mph - N/A   Clear
4:53 PM 73.0 °F 63.0 °F 71% 29.95 in 10.0 mi WSW 9.2 mph - 0.00 in Rain Light Rain
5:53 PM 70.0 °F 61.0 °F 73% 29.97 in 10.0 mi NW 8.1 mph - 0.00 in   Clear
6:53 PM 69.1 °F 62.1 °F 78% 29.98 in 10.0 mi NNW 6.9 mph - N/A   Scattered Clouds
7:53 PM 69.1 °F 63.0 °F 81% 29.99 in 10.0 mi Calm Calm - N/A   Overcast
8:53 PM 68.0 °F 63.0 °F 84% 30.02 in 10.0 mi NW 4.6 mph - N/A   Overcast
9:53 PM 68.0 °F 61.0 °F 78% 30.03 in 10.0 mi North 4.6 mph - N/A   Overcast
10:53 PM 66.9 °F 61.0 °F 81% 30.01 in 10.0 mi NE 4.6 mph - N/A   Overcast
11:53 PM 66.0 °F 61.0 °F 84% 30.01 in 10.0 mi Calm Calm - 0.00 in Rain Light Rain